ROMMA est une association bénévole à but non lucratif. Votre soutien est indispensable : ADHERER à ROMMA ou FAIRE un DON

Voiron - (38, Isère)

Voironnais (300 m)   Longitude: 05° 35' E   Latitude: 45° 23' N Station partenaire n°109
 

Détail journalier du     <<     >>

Température Precipitation Humidité Pression Vent Dir Rafale Dir. rafale Ensol.
Heure (°C) (mm) (%) (hPa) (km/h) (km/h) (min)
01:00 28.806610162SE5SE0
02:00 27.607110161SE5SO0
03:00 26.4074101605OSO0
04:00 25.6077101703OSO0
05:00 25.0079101703OSO0
06:00 24.5080101703OSO0
07:00 24.7079101805OSO0
08:00 27.107110181OSO5OSO30
09:00 27.506910185S10S60
10:00 29.506110185SSE15SSE60
11:00 30.406010186SSE15SSE60
12:00 31.405910185SE13SE60
13:00 32.505710185SE13SE60
14:00 33.305610186S18S60
15:00 34.305210176S16O60
16:00 34.904910176S16SSO60
17:00 35.204710166SSO15OSO60
18:00 35.304610166SSO15SO60
19:00 34.704710176SO15OSO60
20:00 33.204410178SSO37SSE0
21:00 31.1039101719SSE40SSE30
22:00 28.3049101820SSE44ESE0
23:00 27.4054101917SSE42SSE0
minuit 28.0049101917SE42SE0

Graphique du 30-06-2019

 

Serveur OMMA